ATLAS D R/B, 1616

Orbit data source: Space-Track

ATLAS D R/B, 1616 is space debris in LEO originally from a launch on Tue, 05 Oct 1965 UTC launched from the Air Force Western Test Range (AFWTR). Debris objects in space refer to the collection of defunct objects orbiting the Earth. Examples of debris include non-operational satellites, rocket bodies, and fragments generated from explosions, collisions, or faulty payload assembly.

Loading next visibility...
ATLAS D R/B details
Identifier
1616, 1965-078B
Orbit
LEO
Last TLE update1 day ago
Origin
Flag of USUSAF OAR (US)
ManufacturerABL
MissionSpacecraft
Bus & MotorALTAIR, Unknown motor
Mass70 kg wet, 70 kg dry
Launch date (UTC)
1965-10-05 (59 years ago)
Launch vehicleUnknown
Launch site
Air Force Western Test Range (AFWTR)
Object type
Payload
Rocket body
Debris
Shape & HBRCyl, 3.1 m
Radar Cross Section8.765 m², Medium (>0.1 m² and < 1m²)

Expand to show TLE details & history

TLE from 1 day ago
0 ATLAS D R/B
1 01616U 65078B   25035.17591848  .00017306  00000-0  15721-2 0  9993
2 01616 144.2354 102.5848 1001326 124.8114 245.0828 13.29608811684186
Epoch: 2025-02-04T04:13Z
Definitive object data (Epoch: 2025-02-04T04:13:19.356Z)
Latitude0.00001°
Longitude-95.33083°
Altitude1,522.734 km
Speed6.927 km/s
True Right ascension06h 50m 20s
True Declination0° 00' 00"
Sunlit
Object was in full shadow at TLE epoch
Visualization TLE readout
Latitude-35.82265°
Longitude-2.93555°
Altitude1,694.674 km
Speed6.773 km/s
Apparent Right ascension09h 46m 47s
Apparent Declination-62° 05' 37"
Sunlit
Object is in daylight
Visualization observer readout
Local Sidereal Time16:00:14
Azimuth215.288° SW
Elevation-36.023°
Doppler factor1
Orbital elements
Apogee altitude1,905.068 km
Perigee altitude397.215 km
Semi-major axis7,529.278 km
Eccentricity0.1001326
Inclination144.2354°
RAAN102.5848°
Arg. of periapsis124.8114°
True anomaly235.24692°
Mean anomaly245.0828°
Eccentric anomaly240.10882°
Mean motion3.3221 °/min
BSTAR0.0015721
Orbital period108.37 mins
Loading maneuver chart data...
Loading historical data...
Loading historical data...
Loading historical data...
Loading historical data...
Loading historical data...
Loading historical data...
Loading historical data...
Other satellites on launch #78 in the year 1965 (1965-10-05 UTC)

ATLAS D R/B Visibility forecast

Observer location: undefined°, undefined

Span
Click to sort rows by Start time (UTC) header in descending order
Start Az.
Max El. time (UTC)
Max El. Az.
Max El.
End time (UTC)
End Az.
4 mins2025-02-05 22:08:50.435Z116.372° SE2025-02-05 22:10:50.435Z183.474° SSW30.317°2025-02-05 22:12:50.435Z232.756° WSW
7 mins2025-02-05 23:49:50.435Z110.153° ESE2025-02-05 23:53:50.435Z193.175° SSW37.061°2025-02-05 23:56:50.435Z256.71° W
8 mins2025-02-06 01:31:50.435Z133° SE2025-02-06 01:36:50.435Z204.071° SW30.14°2025-02-06 01:39:50.435Z254.678° W
7 mins2025-02-06 03:15:50.435Z172.374° S2025-02-06 03:18:50.435Z202.384° SSW18.536°2025-02-06 03:22:50.435Z246.65° WSW
|